TimeCDT,TemperatureF,Dew PointF,Humidity,Sea Level PressureIn,VisibilityMPH,Wind Direction,Wind SpeedMPH,Gust SpeedMPH,PrecipitationIn,Events,Conditions,WindDirDegrees,DateUTC
12:22 AM,19.4,17.6,93,30.13,2.0,NNW,19.6,-,0.00,Snow,Light Snow,340,2013-03-25 05:22:00
12:36 AM,19.4,17.6,93,30.13,1.5,NNW,20.7,-,0.00,Snow,Light Snow,340,2013-03-25 05:36:00
12:53 AM,19.9,18.0,92,30.22,2.0,NNW,20.7,-,0.00,Snow,Light Snow,340,2013-03-25 05:53:00
1:09 AM,19.4,17.6,93,30.13,1.8,NNW,19.6,-,0.00,Snow,Light Snow,340,2013-03-25 06:09:00
1:17 AM,19.4,17.6,93,30.13,3.0,NNW,20.7,-,0.00,Snow,Light Snow,340,2013-03-25 06:17:00
1:53 AM,19.9,17.1,89,30.22,4.0,North,18.4,-,0.00,Snow,Light Snow,350,2013-03-25 06:53:00
2:53 AM,19.9,17.1,89,30.22,6.0,NNW,20.7,-,0.00,,Overcast,340,2013-03-25 07:53:00
3:27 AM,19.4,17.6,93,30.14,8.0,North,18.4,-,N/A,,Overcast,350,2013-03-25 08:27:00
3:53 AM,19.9,17.1,89,30.22,9.0,North,17.3,-,N/A,,Overcast,350,2013-03-25 08:53:00
4:53 AM,19.9,17.1,89,30.23,10.0,North,20.7,26.5,N/A,,Overcast,350,2013-03-25 09:53:00
5:00 AM,19.4,17.6,93,30.15,10.0,North,17.3,26.5,N/A,,Overcast,350,2013-03-25 10:00:00
5:12 AM,19.4,17.6,93,30.15,10.0,NNW,17.3,-,N/A,,Overcast,340,2013-03-25 10:12:00
5:53 AM,19.0,17.1,92,30.24,9.0,NNW,19.6,-,N/A,,Overcast,340,2013-03-25 10:53:00
6:53 AM,19.0,16.0,88,30.26,10.0,NNW,16.1,-,N/A,,Overcast,340,2013-03-25 11:53:00
7:53 AM,18.0,16.0,92,30.28,9.0,NNW,17.3,-,N/A,,Overcast,340,2013-03-25 12:53:00
8:21 AM,17.6,15.8,93,30.20,9.0,NNW,16.1,-,N/A,,Overcast,340,2013-03-25 13:21:00
8:53 AM,18.0,15.1,88,30.30,9.0,NNW,17.3,-,N/A,,Overcast,340,2013-03-25 13:53:00
9:53 AM,19.0,15.1,85,30.32,8.0,NNW,15.0,-,N/A,,Overcast,340,2013-03-25 14:53:00
10:53 AM,19.9,17.1,89,30.32,10.0,NNW,17.3,-,0.00,,Overcast,340,2013-03-25 15:53:00
11:53 AM,21.9,17.1,82,30.33,10.0,North,17.3,-,N/A,,Overcast,350,2013-03-25 16:53:00
12:38 PM,23.0,17.6,80,30.25,10.0,NNW,17.3,-,N/A,,Overcast,330,2013-03-25 17:38:00
12:53 PM,24.1,18.0,77,30.34,10.0,NNW,17.3,-,N/A,,Overcast,340,2013-03-25 17:53:00
1:31 PM,24.8,17.6,74,30.24,10.0,NNW,17.3,-,N/A,,Overcast,340,2013-03-25 18:31:00
1:53 PM,24.1,18.0,77,30.33,10.0,NNW,18.4,-,N/A,,Overcast,330,2013-03-25 18:53:00
2:53 PM,25.0,18.0,75,30.33,10.0,NNW,19.6,-,N/A,,Overcast,330,2013-03-25 19:53:00
3:45 PM,24.8,17.6,74,30.24,7.0,NNW,19.6,-,N/A,,Overcast,340,2013-03-25 20:45:00
3:53 PM,24.1,16.0,71,30.33,7.0,NNW,18.4,-,0.00,Snow,Light Snow,340,2013-03-25 20:53:00
4:53 PM,24.1,16.0,71,30.34,10.0,NNW,18.4,-,0.00,,Overcast,330,2013-03-25 21:53:00
5:53 PM,23.0,15.1,72,30.35,9.0,NNW,16.1,-,0.00,,Overcast,330,2013-03-25 22:53:00
6:53 PM,21.9,14.0,72,30.36,10.0,North,13.8,-,N/A,,Overcast,350,2013-03-25 23:53:00
7:53 PM,19.0,14.0,81,30.38,10.0,NNW,8.1,-,N/A,,Scattered Clouds,330,2013-03-26 00:53:00
8:53 PM,17.1,12.9,84,30.38,10.0,NW,9.2,-,N/A,,Partly Cloudy,320,2013-03-26 01:53:00
9:53 PM,15.1,10.0,80,30.40,10.0,NW,6.9,-,N/A,,Clear,320,2013-03-26 02:53:00
10:53 PM,14.0,10.0,84,30.39,10.0,NNW,9.2,-,N/A,,Clear,330,2013-03-26 03:53:00
11:53 PM,12.0,8.1,84,30.39,10.0,NW,6.9,-,N/A,,Clear,320,2013-03-26 04:53:00